This demonstration page uses our WeatherBlox Daily Observations layout. Learn more.

Left ArrowRight Arrow

39.08367, -84.50855

Hourly Observations for January 9, 2021

Temp ( °F °C ) Dew Point ( °F °C ) Humidity (%) Winds ( mph kmh ) Pressure ( in mb ) Visibility ( mi km ) Precip ( " mm )
12:53 am 00:53 Cloudy 32 0 23 -5 69 69 NNE 5 7 30.16 1021 10 16.0934 0 0
1:53 am 01:53 Cloudy 32 0 23 -5 69 69 N 6 9 30.16 1022 10 16.0934 0 0
2:53 am 02:53 Cloudy 32 0 23 -5 69 69 N 8 13 30.18 1022 10 16.0934 0 0
3:53 am 03:53 Cloudy 32 0 23 -5 69 69 N 5 7 30.19 1022 10 16.0934 0 0
4:53 am 04:53 Cloudy 31 -0.6 23 -5 72 72 NNE 6 9 30.19 1023 10 16.0934 0 0
5:53 am 05:53 Cloudy 31 -0.6 22 -5.6 69 69 N 6 9 30.2 1023 10 16.0934 0 0
6:53 am 06:53 Cloudy 31 -0.6 22 -5.6 69 69 NNE 5 7 30.23 1024 10 16.0934 0 0
7:53 am 07:53 Cloudy 31 -0.6 22 -5.6 69 69 NE 7 11 30.25 1024 10 16.0934 0 0
8:53 am 08:53 Cloudy 31 -0.6 21 -6.1 67 67 NNE 5 7 30.27 1025 10 16.0934 0 0
9:53 am 09:53 Cloudy 31 -0.6 21 -6.1 67 67 NNW 6 9 30.29 1026 10 16.0934 0 0
10:53 am 10:53 Cloudy 32 0 21 -6.1 64 64 N 5 7 30.3 1026 10 16.0934 0 0
11:53 am 11:53 Cloudy 32 0 21 -6.1 64 64 VRB 5 7 30.3 1026 10 16.0934 0 0
12:53 pm 12:53 Cloudy 33 0.6 21 -6.1 61 61 NNE 6 9 30.28 1025 10 16.0934 0 0
1:53 pm 13:53 Mostly Cloudy 32 0 21 -6.1 64 64 Calm 30.28 1026 10 16.0934 0 0
2:53 pm 14:53 Partly Cloudy 36 2.2 22 -5.6 57 57 NW 6 9 30.29 1026 10 16.0934 0 0
3:53 pm 15:53 Sunny 36 2.2 21 -6.1 55 55 VRB 3 6 30.29 1026 10 16.0934 0 0
4:53 pm 16:53 Sunny 34 1.1 21 -6.1 59 59 W 5 7 30.31 1026 10 16.0934 0 0
5:53 pm 17:53 Clear 30 -1.1 21 -6.1 69 69 Calm 30.33 1027 10 16.0934 0 0
6:53 pm 18:53 Clear 27 -2.8 21 -6.1 78 78 Calm 30.35 1028 10 16.0934 0 0
7:53 pm 19:53 Clear 25 -3.9 21 -6.1 85 85 Calm 30.36 1028 10 16.0934 0 0
8:53 pm 20:53 Clear 25 -3.9 21 -6.1 85 85 Calm 30.36 1028 10 16.0934 0 0
9:53 pm 21:53 Clear 23 -5 20 -6.7 88 88 Calm 30.36 1028 9 14.48406 0 0
10:53 pm 22:53 Clear 23 -5 20 -6.7 88 88 Calm 30.36 1028 7 11.26538 0 0
11:53 pm 23:53 Clear with Mist and Fog 21 -6.1 19 -7.2 92 92 Calm 30.35 1028 4 6.43736 0 0

Powered by AerisWeather